Jim Kilabuk — VCKW — position and weather

sailwx.info

Track history (hours):
 
Tides and Currents Weather Stations Pressure Air Temp Water Temp Dewpoint Dewpoint Depression Visibility Wind Speed Wind Dir Waves Ship Positions

Jim Kilabuk

Last reported at 2015-Jul-09 02:23 UTC. Time now 2015-Jul-29 09:32 UTC.
Position N 49°14' W 127°10'.
Warning: this ship's position is 20 days out of date.

Length 62 m; draft 4.3 m.

Type: Tug. MMSI: 316232000.

Date/timePositionNaut miles runAvg speedWind from/ knotsBaromVisibWave heightAir tempDewpointWater temp
2015-Jul-09 02:23N 49°14' W 127°10'1410.7
2015-Jul-09 01:06N 49°08' W 126°52'710.2
2015-Jul-09 00:22N 49°05' W 126°41'911.0
2015-Jul-08 23:31N 49°01' W 126°28'1111.3
2015-Jul-08 22:33N 48°56' W 126°14'1111.2
2015-Jul-08 21:33N 48°51' W 125°58'1211.5
2015-Jul-08 20:33N 48°47' W 125°42'1211.9
2015-Jul-08 19:33N 48°42' W 125°25'1211.6
2015-Jul-08 18:33N 48°38' W 125°09'1211.7
2015-Jul-08 17:33N 48°34' W 124°52'1111.0
2015-Jul-08 16:33N 48°30' W 124°37'1110.7
2015-Jul-08 15:33N 48°25' W 124°22'1010.3
2015-Jul-08 14:33N 48°21' W 124°08'1110.9
2015-Jul-08 13:33N 48°17' W 123°53'1211.9
2015-Jul-08 12:33N 48°16' W 123°35'9 9.5
2015-Jul-08 11:33N 48°22' W 123°25'10 9.5
2015-Jul-08 10:33N 48°27' W 123°12'1313.4
2015-Jul-08 09:33N 48°40' W 123°15'1211.5
2015-Jul-08 08:33N 48°47' W 123°01'1010.0
2015-Jul-08 07:33N 48°55' W 123°10'1110.9
2015-Jul-08 06:33N 49°03' W 123°22'8 8.4
2015-Jul-08 05:33N 49°11' W 123°23'10 9.9
2015-Jul-08 04:33N 49°19' W 123°15'7 6.8
2015-Jul-08 03:33N 49°18' W 123°05'1 1.2
2015-Jul-08 02:32N 49°18' W 123°03'0 0.0
2015-Jul-08 01:29N 49°18' W 123°03'0 0.0
2015-Jul-08 00:32N 49°18' W 123°03'0 0.0
2015-Jul-07 23:32N 49°18' W 123°03'0 0.0
2015-Jul-07 22:32N 49°18' W 123°03'0 0.0
2015-Jul-07 21:29N 49°18' W 123°03'0 0.0
2015-Jul-07 20:32N 49°18' W 123°03'0 0.0
2015-Jul-07 19:32N 49°18' W 123°03'0 0.0
2015-Jul-07 18:32N 49°18' W 123°03'0 0.0
2015-Jul-07 17:32N 49°18' W 123°03'0 0.0
2015-Jul-07 16:32N 49°18' W 123°03'0 0.0
2015-Jul-07 15:32N 49°18' W 123°03'0 0.0
2015-Jul-07 14:32N 49°18' W 123°03'0 0.0
2015-Jul-07 13:32N 49°18' W 123°03'0 0.0
2015-Jul-07 12:32N 49°18' W 123°03'0 0.0
2015-Jul-07 11:32N 49°18' W 123°03'0 0.0
2015-Jul-07 10:32N 49°18' W 123°03'0 0.0
2015-Jul-07 09:32N 49°18' W 123°03'0 0.0
2015-Jul-07 08:32N 49°18' W 123°03'0 0.0
2015-Jul-07 07:32N 49°18' W 123°03'0 0.0
2015-Jul-07 06:32N 49°18' W 123°03'0 0.0
2015-Jul-07 05:32N 49°18' W 123°03'0 0.0
2015-Jul-07 04:32N 49°18' W 123°03'0 0.0
2015-Jul-07 03:32N 49°18' W 123°03'0 0.0
2015-Jul-07 02:32N 49°18' W 123°03'0 0.0
2015-Jul-07 01:32N 49°18' W 123°03'0 0.0
2015-Jul-07 00:32N 49°18' W 123°03'0 0.0
2015-Jul-06 23:32N 49°18' W 123°03'0 0.0
2015-Jul-06 22:32N 49°18' W 123°03'0 0.0
2015-Jul-06 21:32N 49°18' W 123°03'0 0.0
2015-Jul-06 20:32N 49°18' W 123°03'0 0.0
2015-Jul-06 19:32N 49°18' W 123°03'0 0.0
2015-Jul-06 18:32N 49°18' W 123°03'0 0.0
2015-Jul-06 17:32N 49°18' W 123°03'0 0.0
2015-Jul-06 16:32N 49°18' W 123°03'0 0.0
2015-Jul-06 15:32N 49°18' W 123°03'0 0.0
2015-Jul-06 14:32N 49°18' W 123°03'0 0.0
2015-Jul-06 13:32N 49°18' W 123°03'0 0.0
2015-Jul-06 12:32N 49°18' W 123°03'0 0.0
2015-Jul-06 11:32N 49°18' W 123°03'0 0.0
2015-Jul-06 10:32N 49°18' W 123°03'0 0.0
2015-Jul-06 09:32N 49°18' W 123°03'0 0.0
2015-Jul-06 08:32N 49°18' W 123°03'0 0.0
2015-Jul-06 07:32N 49°18' W 123°03'0 0.0
2015-Jul-06 06:32N 49°18' W 123°03'0 0.0
2015-Jul-06 05:32N 49°18' W 123°03'0 0.0
2015-Jul-06 04:32N 49°18' W 123°03'0 0.0
2015-Jul-06 03:32N 49°18' W 123°03'0 0.0
2015-Jul-06 02:32N 49°18' W 123°03'0 0.0
2015-Jul-06 01:32N 49°18' W 123°03'0 0.0
2015-Jul-06 00:32N 49°18' W 123°03'0 0.0
2015-Jul-05 23:32N 49°18' W 123°03'0 0.0
2015-Jul-05 22:32N 49°18' W 123°03'0 0.0
2015-Jul-05 21:32N 49°18' W 123°03'0 0.0
2015-Jul-05 20:32N 49°18' W 123°03'0 0.0
2015-Jul-05 19:32N 49°18' W 123°03'0 0.0
2015-Jul-05 18:32N 49°18' W 123°03'0 0.0
2015-Jul-05 17:32N 49°18' W 123°03'0 0.0
2015-Jul-05 16:32N 49°18' W 123°03'0 0.0
2015-Jul-05 15:32N 49°18' W 123°03'0 0.0
2015-Jul-05 14:32N 49°18' W 123°03'0 0.0
2015-Jul-05 13:32N 49°18' W 123°03'0 0.0
2015-Jul-05 12:32N 49°18' W 123°03'0 0.0
2015-Jul-05 11:32N 49°18' W 123°03'0 0.0
2015-Jul-05 10:32N 49°18' W 123°03'0 0.0
2015-Jul-05 09:32N 49°18' W 123°03'0 0.0
2015-Jul-05 08:32N 49°18' W 123°03'0 0.0
2015-Jul-05 07:32N 49°18' W 123°03'0 0.0
2015-Jul-05 06:32N 49°18' W 123°03'0 0.0
2015-Jul-05 05:32N 49°18' W 123°03'0 0.0
2015-Jul-05 04:32N 49°18' W 123°03'0 0.0
2015-Jul-05 03:32N 49°18' W 123°03'0 0.0
2015-Jul-05 02:32N 49°18' W 123°03'0 0.0
2015-Jul-05 01:33N 49°18' W 123°03'0 0.0
2015-Jul-05 00:33N 49°18' W 123°03'0 0.0
2015-Jul-04 23:33N 49°18' W 123°03'0 0.0
2015-Jul-04 22:33N 49°18' W 123°03'1 0.8
2015-Jul-04 21:33N 49°18' W 123°04'0 0.0
2015-Jul-04 20:32N 49°18' W 123°04'0 0.0
2015-Jul-04 19:32N 49°18' W 123°04'0 0.0
2015-Jul-04 18:32N 49°18' W 123°04'0 0.0
2015-Jul-04 17:32N 49°18' W 123°04'0 0.0
2015-Jul-04 16:32N 49°18' W 123°04'0 0.0
2015-Jul-04 15:32N 49°18' W 123°04'0 0.0
2015-Jul-04 14:32N 49°18' W 123°04'0 0.0
2015-Jul-04 13:32N 49°18' W 123°04'0 0.0
2015-Jul-04 12:32N 49°18' W 123°04'0 0.0
2015-Jul-04 11:32N 49°18' W 123°04'0 0.0
2015-Jul-04 10:32N 49°18' W 123°04'0 0.0
2015-Jul-04 09:32N 49°18' W 123°04'0 0.0
2015-Jul-04 08:32N 49°18' W 123°04'0 0.0
2015-Jul-04 07:32N 49°18' W 123°04'0 0.0
2015-Jul-04 06:32N 49°18' W 123°04'0 0.0
2015-Jul-04 05:32N 49°18' W 123°04'0 0.0
2015-Jul-04 04:32N 49°18' W 123°04'0 0.0
2015-Jul-04 03:32N 49°18' W 123°04'0 0.0
2015-Jul-04 02:32N 49°18' W 123°04'0 0.0
2015-Jul-04 01:32N 49°18' W 123°04'0 0.0
2015-Jul-04 00:32N 49°18' W 123°04'0 0.0
2015-Jul-03 23:32N 49°18' W 123°04'0 0.0
2015-Jul-03 22:32N 49°18' W 123°04'0 0.0
2015-Jul-03 21:32N 49°18' W 123°04'0 0.1
2015-Jul-03 20:32N 49°18' W 123°04'1 0.6
2015-Jul-03 19:33N 49°18' W 123°05'7 6.6
2015-Jul-03 18:33N 49°20' W 123°15'2 1.7
2015-Jul-03 17:33N 49°19' W 123°17'2 1.7
2015-Jul-03 16:33N 49°20' W 123°15'2 2.4
2015-Jul-03 15:33N 49°18' W 123°17'1010.0
2015-Jul-03 14:33N 49°15' W 123°31'1111.4
2015-Jul-03 13:33N 49°13' W 123°48'6 5.7
2015-Jul-03 12:33N 49°10' W 123°56'0 0.0
2015-Jul-03 11:33N 49°10' W 123°56'0 0.0
2015-Jul-03 10:33N 49°10' W 123°56'0 0.0
2015-Jul-03 09:33N 49°10' W 123°56'0 0.0
2015-Jul-03 08:33N 49°10' W 123°56'0 0.0
2015-Jul-03 07:33N 49°10' W 123°56'0 0.0
2015-Jul-03 06:33N 49°10' W 123°56'0 0.0
2015-Jul-03 05:33N 49°10' W 123°56'0 0.0
2015-Jul-03 04:33N 49°10' W 123°56'0 0.0
2015-Jul-03 03:33N 49°10' W 123°56'0 0.0
2015-Jul-03 02:27N 49°10' W 123°56'0 0.0
2015-Jul-03 01:33N 49°10' W 123°56'0 0.0
2015-Jul-03 00:32N 49°10' W 123°56'0 0.0
2015-Jul-02 23:33N 49°10' W 123°56'0 0.0
2015-Jul-02 22:33N 49°10' W 123°56'0 0.0
2015-Jul-02 21:33N 49°10' W 123°56'0 0.0
2015-Jul-02 20:33N 49°10' W 123°56'0 0.0
2015-Jul-02 19:33N 49°10' W 123°56'0 0.0
2015-Jul-02 18:33N 49°10' W 123°56'0 0.0
2015-Jul-02 17:33N 49°10' W 123°56'0 0.0
2015-Jul-02 16:33N 49°10' W 123°56'0 0.0
2015-Jul-02 15:33N 49°10' W 123°56'0 0.0
2015-Jul-02 14:33N 49°10' W 123°56'0 0.0
2015-Jul-02 13:33N 49°10' W 123°56'0 0.0
2015-Jul-02 12:33N 49°10' W 123°56'0 0.0
2015-Jul-02 11:33N 49°10' W 123°56'0 0.0
2015-Jul-02 10:33N 49°10' W 123°56'0 0.0
2015-Jul-02 09:33N 49°10' W 123°56'0 0.0
2015-Jul-02 08:31N 49°10' W 123°56'0 0.0
2015-Jul-02 07:13N 49°10' W 123°56'0 0.0
2015-Jul-02 06:33N 49°10' W 123°56'0 0.0
2015-Jul-02 05:33N 49°10' W 123°56'0 0.0
2015-Jul-02 04:33N 49°10' W 123°56'0 0.0
2015-Jul-02 03:33N 49°10' W 123°56'0 0.0
2015-Jul-02 02:33N 49°10' W 123°56'0 0.0
2015-Jul-02 01:33N 49°10' W 123°56'0 0.0
2015-Jul-02 00:33N 49°10' W 123°56'0 0.0
2015-Jul-01 23:33N 49°10' W 123°56'0 0.0
2015-Jul-01 22:33N 49°10' W 123°56'0 0.0
2015-Jul-01 21:33N 49°10' W 123°56'0 0.0
2015-Jul-01 20:33N 49°10' W 123°56'0 0.0
2015-Jul-01 19:33N 49°10' W 123°56'0 0.0
2015-Jul-01 18:33N 49°10' W 123°56'0 0.0
2015-Jul-01 17:33N 49°10' W 123°56'0 0.0
2015-Jul-01 16:33N 49°10' W 123°56'0 0.0
2015-Jul-01 15:33N 49°10' W 123°56'0 0.0
2015-Jul-01 14:33N 49°10' W 123°56'0 0.0
2015-Jul-01 13:33N 49°10' W 123°56'0 0.0
2015-Jul-01 12:33N 49°10' W 123°56'0 0.0
2015-Jul-01 11:33N 49°10' W 123°56'0 0.0
2015-Jul-01 10:33N 49°10' W 123°56'0 0.0
2015-Jul-01 09:33N 49°10' W 123°56'0 0.0
2015-Jul-01 08:33N 49°10' W 123°56'0 0.0
2015-Jul-01 07:33N 49°10' W 123°56'0 0.0
2015-Jul-01 06:33N 49°10' W 123°56'0 0.0
2015-Jul-01 05:33N 49°10' W 123°56'0 0.0
2015-Jul-01 04:33N 49°10' W 123°56'0 0.0
2015-Jul-01 03:33N 49°10' W 123°56'0 0.0
2015-Jul-01 02:33N 49°10' W 123°56'0 0.0
2015-Jul-01 01:33N 49°10' W 123°56'0 0.0
2015-Jul-01 00:33N 49°10' W 123°56'0 0.0
2015-Jun-30 23:33N 49°10' W 123°56'0 0.0
2015-Jun-30 22:33N 49°10' W 123°56'0 0.0
2015-Jun-30 21:33N 49°10' W 123°56'0 0.0
2015-Jun-30 20:33N 49°10' W 123°56'0 0.0
2015-Jun-30 19:33N 49°10' W 123°56'0 0.0
2015-Jun-30 18:33N 49°10' W 123°56'0 0.0
2015-Jun-30 17:32N 49°10' W 123°56'0 0.0
2015-Jun-30 16:33N 49°10' W 123°56'0 0.0
2015-Jun-30 15:33N 49°10' W 123°56'0 0.0
2015-Jun-30 14:33N 49°10' W 123°56'0 0.0
2015-Jun-30 13:33N 49°10' W 123°56'0 0.0
2015-Jun-30 12:33N 49°10' W 123°56'0 0.0
2015-Jun-30 11:33N 49°10' W 123°56'0 0.0
2015-Jun-30 10:33N 49°10' W 123°56'0 0.0
2015-Jun-30 09:33N 49°10' W 123°56'0 0.0
2015-Jun-30 08:33N 49°10' W 123°56'0 0.0
2015-Jun-30 07:33N 49°10' W 123°56'0 0.0
2015-Jun-30 06:33N 49°10' W 123°56'0 0.0
2015-Jun-30 05:33N 49°10' W 123°56'0 0.0
2015-Jun-30 04:33N 49°10' W 123°56'0 0.0
2015-Jun-30 03:33N 49°10' W 123°56'0 0.0
2015-Jun-30 02:33N 49°10' W 123°56'0 0.0
2015-Jun-30 01:33N 49°10' W 123°56'0 0.0
2015-Jun-30 00:33N 49°10' W 123°56'0 0.0
2015-Jun-29 23:33N 49°10' W 123°56'0 0.0
2015-Jun-29 22:33N 49°10' W 123°56'0 0.0
2015-Jun-29 21:33N 49°10' W 123°56'0 0.0
2015-Jun-29 20:33N 49°10' W 123°56'0 0.0
2015-Jun-29 19:33N 49°10' W 123°56'0 0.0
2015-Jun-29 18:33N 49°10' W 123°56'0 0.0
2015-Jun-29 17:33N 49°10' W 123°56'0 0.0
2015-Jun-29 16:33N 49°10' W 123°56'0 0.0
2015-Jun-29 15:33N 49°10' W 123°56'0 0.0
2015-Jun-29 14:33N 49°10' W 123°56'0 0.0
2015-Jun-29 13:33N 49°10' W 123°56'0 0.0
2015-Jun-29 12:33N 49°10' W 123°56'0 0.0
2015-Jun-29 11:33N 49°10' W 123°56'0 0.0
2015-Jun-29 10:33N 49°10' W 123°56'0 0.0
2015-Jun-29 09:33N 49°10' W 123°56'0 0.0
2015-Jun-29 08:33N 49°10' W 123°56'0 0.0
2015-Jun-29 07:33N 49°10' W 123°56'0 0.0
2015-Jun-29 06:33N 49°10' W 123°56'0 0.0
2015-Jun-29 05:33N 49°10' W 123°56'0 0.0
2015-Jun-29 04:33N 49°10' W 123°56'0 0.0
2015-Jun-29 03:33N 49°10' W 123°56'0 0.0
2015-Jun-29 02:33N 49°10' W 123°56'  
Track history (hours):
 
Tides and Currents Weather Stations Pressure Air Temp Water Temp Dewpoint Dewpoint Depression Visibility Wind Speed Wind Dir Waves Ship Positions

Jim Kilabuk

Last reported at 2015-Jul-09 02:23 UTC. Time now 2015-Jul-29 09:32 UTC.
Position N 49°14' W 127°10'.
Warning: this ship's position is 20 days out of date.

Length 62 m; draft 4.3 m.

Type: Tug. MMSI: 316232000.

Date/timePositionNaut miles runAvg speedWind from/ knotsBaromVisibWave heightAir tempDewpointWater temp
2015-Jul-09 02:23N 49°14' W 127°10'1410.7
2015-Jul-09 01:06N 49°08' W 126°52'710.2
2015-Jul-09 00:22N 49°05' W 126°41'911.0
2015-Jul-08 23:31N 49°01' W 126°28'1111.3
2015-Jul-08 22:33N 48°56' W 126°14'1111.2
2015-Jul-08 21:33N 48°51' W 125°58'1211.5
2015-Jul-08 20:33N 48°47' W 125°42'1211.9
2015-Jul-08 19:33N 48°42' W 125°25'1211.6
2015-Jul-08 18:33N 48°38' W 125°09'1211.7
2015-Jul-08 17:33N 48°34' W 124°52'1111.0
2015-Jul-08 16:33N 48°30' W 124°37'1110.7
2015-Jul-08 15:33N 48°25' W 124°22'1010.3
2015-Jul-08 14:33N 48°21' W 124°08'1110.9
2015-Jul-08 13:33N 48°17' W 123°53'1211.9
2015-Jul-08 12:33N 48°16' W 123°35'9 9.5
2015-Jul-08 11:33N 48°22' W 123°25'10 9.5
2015-Jul-08 10:33N 48°27' W 123°12'1313.4
2015-Jul-08 09:33N 48°40' W 123°15'1211.5
2015-Jul-08 08:33N 48°47' W 123°01'1010.0
2015-Jul-08 07:33N 48°55' W 123°10'1110.9
2015-Jul-08 06:33N 49°03' W 123°22'8 8.4
2015-Jul-08 05:33N 49°11' W 123°23'10 9.9
2015-Jul-08 04:33N 49°19' W 123°15'7 6.8
2015-Jul-08 03:33N 49°18' W 123°05'1 1.2
2015-Jul-08 02:32N 49°18' W 123°03'0 0.0
2015-Jul-08 01:29N 49°18' W 123°03'0 0.0
2015-Jul-08 00:32N 49°18' W 123°03'0 0.0
2015-Jul-07 23:32N 49°18' W 123°03'0 0.0
2015-Jul-07 22:32N 49°18' W 123°03'0 0.0
2015-Jul-07 21:29N 49°18' W 123°03'0 0.0
2015-Jul-07 20:32N 49°18' W 123°03'0 0.0
2015-Jul-07 19:32N 49°18' W 123°03'0 0.0
2015-Jul-07 18:32N 49°18' W 123°03'0 0.0
2015-Jul-07 17:32N 49°18' W 123°03'0 0.0
2015-Jul-07 16:32N 49°18' W 123°03'0 0.0
2015-Jul-07 15:32N 49°18' W 123°03'0 0.0
2015-Jul-07 14:32N 49°18' W 123°03'0 0.0
2015-Jul-07 13:32N 49°18' W 123°03'0 0.0
2015-Jul-07 12:32N 49°18' W 123°03'0 0.0
2015-Jul-07 11:32N 49°18' W 123°03'0 0.0
2015-Jul-07 10:32N 49°18' W 123°03'0 0.0
2015-Jul-07 09:32N 49°18' W 123°03'0 0.0
2015-Jul-07 08:32N 49°18' W 123°03'0 0.0
2015-Jul-07 07:32N 49°18' W 123°03'0 0.0
2015-Jul-07 06:32N 49°18' W 123°03'0 0.0
2015-Jul-07 05:32N 49°18' W 123°03'0 0.0
2015-Jul-07 04:32N 49°18' W 123°03'0 0.0
2015-Jul-07 03:32N 49°18' W 123°03'0 0.0
2015-Jul-07 02:32N 49°18' W 123°03'0 0.0
2015-Jul-07 01:32N 49°18' W 123°03'0 0.0
2015-Jul-07 00:32N 49°18' W 123°03'0 0.0
2015-Jul-06 23:32N 49°18' W 123°03'0 0.0
2015-Jul-06 22:32N 49°18' W 123°03'0 0.0
2015-Jul-06 21:32N 49°18' W 123°03'0 0.0
2015-Jul-06 20:32N 49°18' W 123°03'0 0.0
2015-Jul-06 19:32N 49°18' W 123°03'0 0.0
2015-Jul-06 18:32N 49°18' W 123°03'0 0.0
2015-Jul-06 17:32N 49°18' W 123°03'0 0.0
2015-Jul-06 16:32N 49°18' W 123°03'0 0.0
2015-Jul-06 15:32N 49°18' W 123°03'0 0.0
2015-Jul-06 14:32N 49°18' W 123°03'0 0.0
2015-Jul-06 13:32N 49°18' W 123°03'0 0.0
2015-Jul-06 12:32N 49°18' W 123°03'0 0.0
2015-Jul-06 11:32N 49°18' W 123°03'0 0.0
2015-Jul-06 10:32N 49°18' W 123°03'0 0.0
2015-Jul-06 09:32N 49°18' W 123°03'0 0.0
2015-Jul-06 08:32N 49°18' W 123°03'0 0.0
2015-Jul-06 07:32N 49°18' W 123°03'0 0.0
2015-Jul-06 06:32N 49°18' W 123°03'0 0.0
2015-Jul-06 05:32N 49°18' W 123°03'0 0.0
2015-Jul-06 04:32N 49°18' W 123°03'0 0.0
2015-Jul-06 03:32N 49°18' W 123°03'0 0.0
2015-Jul-06 02:32N 49°18' W 123°03'0 0.0
2015-Jul-06 01:32N 49°18' W 123°03'0 0.0
2015-Jul-06 00:32N 49°18' W 123°03'0 0.0
2015-Jul-05 23:32N 49°18' W 123°03'0 0.0
2015-Jul-05 22:32N 49°18' W 123°03'0 0.0
2015-Jul-05 21:32N 49°18' W 123°03'0 0.0
2015-Jul-05 20:32N 49°18' W 123°03'0 0.0
2015-Jul-05 19:32N 49°18' W 123°03'0 0.0
2015-Jul-05 18:32N 49°18' W 123°03'0 0.0
2015-Jul-05 17:32N 49°18' W 123°03'0 0.0
2015-Jul-05 16:32N 49°18' W 123°03'0 0.0
2015-Jul-05 15:32N 49°18' W 123°03'0 0.0
2015-Jul-05 14:32N 49°18' W 123°03'0 0.0
2015-Jul-05 13:32N 49°18' W 123°03'0 0.0
2015-Jul-05 12:32N 49°18' W 123°03'0 0.0
2015-Jul-05 11:32N 49°18' W 123°03'0 0.0
2015-Jul-05 10:32N 49°18' W 123°03'0 0.0
2015-Jul-05 09:32N 49°18' W 123°03'0 0.0
2015-Jul-05 08:32N 49°18' W 123°03'0 0.0
2015-Jul-05 07:32N 49°18' W 123°03'0 0.0
2015-Jul-05 06:32N 49°18' W 123°03'0 0.0
2015-Jul-05 05:32N 49°18' W 123°03'0 0.0
2015-Jul-05 04:32N 49°18' W 123°03'0 0.0
2015-Jul-05 03:32N 49°18' W 123°03'0 0.0
2015-Jul-05 02:32N 49°18' W 123°03'0 0.0
2015-Jul-05 01:33N 49°18' W 123°03'0 0.0
2015-Jul-05 00:33N 49°18' W 123°03'0 0.0
2015-Jul-04 23:33N 49°18' W 123°03'0 0.0
2015-Jul-04 22:33N 49°18' W 123°03'1 0.8
2015-Jul-04 21:33N 49°18' W 123°04'0 0.0
2015-Jul-04 20:32N 49°18' W 123°04'0 0.0
2015-Jul-04 19:32N 49°18' W 123°04'0 0.0
2015-Jul-04 18:32N 49°18' W 123°04'0 0.0
2015-Jul-04 17:32N 49°18' W 123°04'0 0.0
2015-Jul-04 16:32N 49°18' W 123°04'0 0.0
2015-Jul-04 15:32N 49°18' W 123°04'0 0.0
2015-Jul-04 14:32N 49°18' W 123°04'0 0.0
2015-Jul-04 13:32N 49°18' W 123°04'0 0.0
2015-Jul-04 12:32N 49°18' W 123°04'0 0.0
2015-Jul-04 11:32N 49°18' W 123°04'0 0.0
2015-Jul-04 10:32N 49°18' W 123°04'0 0.0
2015-Jul-04 09:32N 49°18' W 123°04'0 0.0
2015-Jul-04 08:32N 49°18' W 123°04'0 0.0
2015-Jul-04 07:32N 49°18' W 123°04'0 0.0
2015-Jul-04 06:32N 49°18' W 123°04'0 0.0
2015-Jul-04 05:32N 49°18' W 123°04'0 0.0
2015-Jul-04 04:32N 49°18' W 123°04'0 0.0
2015-Jul-04 03:32N 49°18' W 123°04'0 0.0
2015-Jul-04 02:32N 49°18' W 123°04'0 0.0
2015-Jul-04 01:32N 49°18' W 123°04'0 0.0
2015-Jul-04 00:32N 49°18' W 123°04'0 0.0
2015-Jul-03 23:32N 49°18' W 123°04'0 0.0
2015-Jul-03 22:32N 49°18' W 123°04'0 0.0
2015-Jul-03 21:32N 49°18' W 123°04'0 0.1
2015-Jul-03 20:32N 49°18' W 123°04'1 0.6
2015-Jul-03 19:33N 49°18' W 123°05'7 6.6
2015-Jul-03 18:33N 49°20' W 123°15'2 1.7
2015-Jul-03 17:33N 49°19' W 123°17'2 1.7
2015-Jul-03 16:33N 49°20' W 123°15'2 2.4
2015-Jul-03 15:33N 49°18' W 123°17'1010.0
2015-Jul-03 14:33N 49°15' W 123°31'1111.4
2015-Jul-03 13:33N 49°13' W 123°48'6 5.7
2015-Jul-03 12:33N 49°10' W 123°56'0 0.0
2015-Jul-03 11:33N 49°10' W 123°56'0 0.0
2015-Jul-03 10:33N 49°10' W 123°56'0 0.0
2015-Jul-03 09:33N 49°10' W 123°56'0 0.0
2015-Jul-03 08:33N 49°10' W 123°56'0 0.0
2015-Jul-03 07:33N 49°10' W 123°56'0 0.0
2015-Jul-03 06:33N 49°10' W 123°56'0 0.0
2015-Jul-03 05:33N 49°10' W 123°56'0 0.0
2015-Jul-03 04:33N 49°10' W 123°56'0 0.0
2015-Jul-03 03:33N 49°10' W 123°56'0 0.0
2015-Jul-03 02:27N 49°10' W 123°56'0 0.0
2015-Jul-03 01:33N 49°10' W 123°56'0 0.0
2015-Jul-03 00:32N 49°10' W 123°56'0 0.0
2015-Jul-02 23:33N 49°10' W 123°56'0 0.0
2015-Jul-02 22:33N 49°10' W 123°56'0 0.0
2015-Jul-02 21:33N 49°10' W 123°56'0 0.0
2015-Jul-02 20:33N 49°10' W 123°56'0 0.0
2015-Jul-02 19:33N 49°10' W 123°56'0 0.0
2015-Jul-02 18:33N 49°10' W 123°56'0 0.0
2015-Jul-02 17:33N 49°10' W 123°56'0 0.0
2015-Jul-02 16:33N 49°10' W 123°56'0 0.0
2015-Jul-02 15:33N 49°10' W 123°56'0 0.0
2015-Jul-02 14:33N 49°10' W 123°56'0 0.0
2015-Jul-02 13:33N 49°10' W 123°56'0 0.0
2015-Jul-02 12:33N 49°10' W 123°56'0 0.0
2015-Jul-02 11:33N 49°10' W 123°56'0 0.0
2015-Jul-02 10:33N 49°10' W 123°56'0 0.0
2015-Jul-02 09:33N 49°10' W 123°56'0 0.0
2015-Jul-02 08:31N 49°10' W 123°56'0 0.0
2015-Jul-02 07:13N 49°10' W 123°56'0 0.0
2015-Jul-02 06:33N 49°10' W 123°56'0 0.0
2015-Jul-02 05:33N 49°10' W 123°56'0 0.0
2015-Jul-02 04:33N 49°10' W 123°56'0 0.0
2015-Jul-02 03:33N 49°10' W 123°56'0 0.0
2015-Jul-02 02:33N 49°10' W 123°56'0 0.0
2015-Jul-02 01:33N 49°10' W 123°56'0 0.0
2015-Jul-02 00:33N 49°10' W 123°56'0 0.0
2015-Jul-01 23:33N 49°10' W 123°56'0 0.0
2015-Jul-01 22:33N 49°10' W 123°56'0 0.0
2015-Jul-01 21:33N 49°10' W 123°56'0 0.0
2015-Jul-01 20:33N 49°10' W 123°56'0 0.0
2015-Jul-01 19:33N 49°10' W 123°56'0 0.0
2015-Jul-01 18:33N 49°10' W 123°56'0 0.0
2015-Jul-01 17:33N 49°10' W 123°56'0 0.0
2015-Jul-01 16:33N 49°10' W 123°56'0 0.0
2015-Jul-01 15:33N 49°10' W 123°56'0 0.0
2015-Jul-01 14:33N 49°10' W 123°56'0 0.0
2015-Jul-01 13:33N 49°10' W 123°56'0 0.0
2015-Jul-01 12:33N 49°10' W 123°56'0 0.0
2015-Jul-01 11:33N 49°10' W 123°56'0 0.0
2015-Jul-01 10:33N 49°10' W 123°56'0 0.0
2015-Jul-01 09:33N 49°10' W 123°56'0 0.0
2015-Jul-01 08:33N 49°10' W 123°56'0 0.0
2015-Jul-01 07:33N 49°10' W 123°56'0 0.0
2015-Jul-01 06:33N 49°10' W 123°56'0 0.0
2015-Jul-01 05:33N 49°10' W 123°56'0 0.0
2015-Jul-01 04:33N 49°10' W 123°56'0 0.0
2015-Jul-01 03:33N 49°10' W 123°56'0 0.0
2015-Jul-01 02:33N 49°10' W 123°56'0 0.0
2015-Jul-01 01:33N 49°10' W 123°56'0 0.0
2015-Jul-01 00:33N 49°10' W 123°56'0 0.0
2015-Jun-30 23:33N 49°10' W 123°56'0 0.0
2015-Jun-30 22:33N 49°10' W 123°56'0 0.0
2015-Jun-30 21:33N 49°10' W 123°56'0 0.0
2015-Jun-30 20:33N 49°10' W 123°56'0 0.0
2015-Jun-30 19:33N 49°10' W 123°56'0 0.0
2015-Jun-30 18:33N 49°10' W 123°56'0 0.0
2015-Jun-30 17:32N 49°10' W 123°56'0 0.0
2015-Jun-30 16:33N 49°10' W 123°56'0 0.0
2015-Jun-30 15:33N 49°10' W 123°56'0 0.0
2015-Jun-30 14:33N 49°10' W 123°56'0 0.0
2015-Jun-30 13:33N 49°10' W 123°56'0 0.0
2015-Jun-30 12:33N 49°10' W 123°56'0 0.0
2015-Jun-30 11:33N 49°10' W 123°56'0 0.0
2015-Jun-30 10:33N 49°10' W 123°56'0 0.0
2015-Jun-30 09:33N 49°10' W 123°56'0 0.0
2015-Jun-30 08:33N 49°10' W 123°56'0 0.0
2015-Jun-30 07:33N 49°10' W 123°56'0 0.0
2015-Jun-30 06:33N 49°10' W 123°56'0 0.0
2015-Jun-30 05:33N 49°10' W 123°56'0 0.0
2015-Jun-30 04:33N 49°10' W 123°56'0 0.0
2015-Jun-30 03:33N 49°10' W 123°56'0 0.0
2015-Jun-30 02:33N 49°10' W 123°56'0 0.0
2015-Jun-30 01:33N 49°10' W 123°56'0 0.0
2015-Jun-30 00:33N 49°10' W 123°56'0 0.0
2015-Jun-29 23:33N 49°10' W 123°56'0 0.0
2015-Jun-29 22:33N 49°10' W 123°56'0 0.0
2015-Jun-29 21:33N 49°10' W 123°56'0 0.0
2015-Jun-29 20:33N 49°10' W 123°56'0 0.0
2015-Jun-29 19:33N 49°10' W 123°56'0 0.0
2015-Jun-29 18:33N 49°10' W 123°56'0 0.0
2015-Jun-29 17:33N 49°10' W 123°56'0 0.0
2015-Jun-29 16:33N 49°10' W 123°56'0 0.0
2015-Jun-29 15:33N 49°10' W 123°56'0 0.0
2015-Jun-29 14:33N 49°10' W 123°56'0 0.0
2015-Jun-29 13:33N 49°10' W 123°56'0 0.0
2015-Jun-29 12:33N 49°10' W 123°56'0 0.0
2015-Jun-29 11:33N 49°10' W 123°56'0 0.0
2015-Jun-29 10:33N 49°10' W 123°56'0 0.0
2015-Jun-29 09:33N 49°10' W 123°56'0 0.0
2015-Jun-29 08:33N 49°10' W 123°56'0 0.0
2015-Jun-29 07:33N 49°10' W 123°56'0 0.0
2015-Jun-29 06:33N 49°10' W 123°56'0 0.0
2015-Jun-29 05:33N 49°10' W 123°56'0 0.0
2015-Jun-29 04:33N 49°10' W 123°56'0 0.0
2015-Jun-29 03:33N 49°10' W 123°56'0 0.0
2015-Jun-29 02:33N 49°10' W 123°56'  

Dump ship's entire track history